Tracking 19794 objects as of 22-Jul-2019
HD Live streaming from Space Station
objects crossing your sky now

ARIANE 2 DEB

Track ARIANE 2 DEB now!


NORAD ID: 27030
Int'l Code: 1989-006K
Perigee: 533.0 km
Apogee: 34,695.4 km
Inclination: 8.0 °
Period: 616.1 minutes
Semi major axis: 23985 km
RCS: 0.3251 m2 (medium)
Launch date: January 27, 1989
Source: France (FR)
Launch site: FRENCH GUIANA (FRGUI)

Note: This is SATELLITE DEBRIS
aabbcc
Your satellite tracking list
Your tracking list is empty




NASA's NSSDC Master Catalog

Two Line Element Set (TLE):
1 27030U 89006K   19201.34013066 -.00000222 +00000-0 -99771-3 0  9995
2 27030 008.0142 261.1690 7121548 105.5645 337.3714 02.33715652150613
Source of the keplerian elements: AFSPC